Time,TemperatureF,DewpointF,PressureIn,WindDirection,WindDirectionDegrees,WindSpeedMPH,WindSpeedGustMPH,Humidity,HourlyPrecipIn,Conditions,Clouds,dailyrainin,SoftwareType,DateUTC
2013-02-23 00:00:00,47.0,41.5,30.17,East,94,0.0,1.0,81,0.00,CLR,,0.00,WeatherDisplay:10.37,2013-02-23 08:00:00,
2013-02-23 00:15:00,47.0,41.5,30.18,East,94,0.0,1.0,81,0.00,CLR,,0.00,WeatherDisplay:10.37,2013-02-23 08:15:00,
2013-02-23 00:30:00,46.8,41.3,30.18,SE,135,0.0,4.0,81,0.00,CLR,,0.00,WeatherDisplay:10.37,2013-02-23 08:30:00,
2013-02-23 00:45:00,46.8,41.3,30.17,ESE,118,0.0,1.0,81,0.00,CLR,,0.00,WeatherDisplay:10.37,2013-02-23 08:45:00,
2013-02-23 01:00:00,46.8,41.3,30.16,ESE,118,0.0,1.0,81,0.00,CLR,,0.00,WeatherDisplay:10.37,2013-02-23 09:00:00,
2013-02-23 01:15:00,46.5,41.0,30.16,ESE,118,0.0,0.0,81,0.00,CLR,,0.00,WeatherDisplay:10.37,2013-02-23 09:15:00,
2013-02-23 01:30:00,45.9,40.7,30.16,ESE,118,0.0,0.0,82,0.00,CLR,,0.00,WeatherDisplay:10.37,2013-02-23 09:30:00,
2013-02-23 01:45:00,44.8,40.0,30.17,ESE,118,0.0,0.0,83,0.00,CLR,,0.00,WeatherDisplay:10.37,2013-02-23 09:45:00,
2013-02-23 02:00:00,44.2,39.7,30.16,ESE,118,0.0,0.0,84,0.00,CLR,,0.00,WeatherDisplay:10.37,2013-02-23 10:00:00,
2013-02-23 02:15:00,43.5,39.0,30.15,ESE,118,0.0,0.0,84,0.00,CLR,,0.00,WeatherDisplay:10.37,2013-02-23 10:15:00,
2013-02-23 02:30:00,43.1,39.2,30.15,ESE,118,0.0,0.0,86,0.00,CLR,,0.00,WeatherDisplay:10.37,2013-02-23 10:30:00,
2013-02-23 02:45:00,42.9,39.0,30.16,ESE,118,0.0,0.0,86,0.00,CLR,,0.00,WeatherDisplay:10.37,2013-02-23 10:45:00,
2013-02-23 03:00:00,42.9,39.3,30.15,ESE,118,0.0,0.0,87,0.00,CLR,,0.00,WeatherDisplay:10.37,2013-02-23 11:00:00,
2013-02-23 03:15:00,42.9,39.3,30.15,ESE,118,0.0,0.0,87,0.00,CLR,,0.00,WeatherDisplay:10.37,2013-02-23 11:15:00,
2013-02-23 03:30:00,42.9,39.6,30.15,ESE,118,0.0,0.0,88,0.00,CLR,,0.00,WeatherDisplay:10.37,2013-02-23 11:30:00,
2013-02-23 03:45:00,43.1,39.8,30.14,ESE,118,0.0,1.0,88,0.00,CLR,,0.00,WeatherDisplay:10.37,2013-02-23 11:45:00,
2013-02-23 04:00:00,43.8,40.8,30.13,ESE,118,0.0,0.0,89,0.00,CLR,,0.00,WeatherDisplay:10.37,2013-02-23 12:00:00,
2013-02-23 04:15:00,43.6,40.3,30.14,ESE,118,0.0,0.0,88,0.00,CLR,,0.00,WeatherDisplay:10.37,2013-02-23 12:15:00,
2013-02-23 04:30:00,43.6,40.3,30.13,ESE,118,0.0,0.0,88,0.00,CLR,,0.00,WeatherDisplay:10.37,2013-02-23 12:30:00,
2013-02-23 04:45:00,43.8,40.5,30.12,ESE,118,0.0,0.0,88,0.00,CLR,,0.00,WeatherDisplay:10.37,2013-02-23 12:45:00,
2013-02-23 05:00:00,43.8,40.5,30.12,ESE,118,0.0,0.0,88,0.00,CLR,,0.00,WeatherDisplay:10.37,2013-02-23 13:00:00,
2013-02-23 05:15:00,43.8,40.8,30.12,ESE,118,0.0,0.0,89,0.00,CLR,,0.00,WeatherDisplay:10.37,2013-02-23 13:15:00,
2013-02-23 05:30:00,43.8,40.8,30.13,ESE,118,0.0,0.0,89,0.00,CLR,,0.00,WeatherDisplay:10.37,2013-02-23 13:30:00,
2013-02-23 05:45:00,43.9,40.9,30.13,ESE,118,0.0,0.0,89,0.00,CLR,,0.00,WeatherDisplay:10.37,2013-02-23 13:45:00,
2013-02-23 06:00:00,44.1,41.4,30.14,ESE,118,0.0,1.0,90,0.00,CLR,,0.00,WeatherDisplay:10.37,2013-02-23 14:00:00,
2013-02-23 06:15:00,44.9,42.4,30.14,ESE,118,0.0,0.0,91,0.00,CLR,,0.00,WeatherDisplay:10.37,2013-02-23 14:15:00,
2013-02-23 06:30:00,45.4,42.9,30.14,ESE,116,0.0,1.0,91,0.00,CLR,,0.00,WeatherDisplay:10.37,2013-02-23 14:30:00,
2013-02-23 06:45:00,45.2,42.4,30.14,ESE,116,0.0,0.0,90,0.00,CLR,,0.00,WeatherDisplay:10.37,2013-02-23 14:45:00,
2013-02-23 07:00:00,44.5,41.5,30.14,ESE,116,0.0,1.0,89,0.00,CLR,,0.00,WeatherDisplay:10.37,2013-02-23 15:00:00,
2013-02-23 07:15:00,44.2,41.2,30.15,ESE,116,0.0,1.0,89,0.00,CLR,,0.00,WeatherDisplay:10.37,2013-02-23 15:15:00,
2013-02-23 07:30:00,44.6,40.4,30.16,East,98,0.0,2.0,85,0.00,CLR,,0.00,WeatherDisplay:10.37,2013-02-23 15:30:00,
2013-02-23 07:45:00,44.8,39.6,30.16,East,94,0.0,2.0,82,0.00,CLR,,0.00,WeatherDisplay:10.37,2013-02-23 15:45:00,
2013-02-23 08:00:00,44.9,39.4,30.16,ENE,62,0.0,2.0,81,0.00,CLR,,0.00,WeatherDisplay:10.37,2013-02-23 16:00:00,
2013-02-23 08:15:00,44.9,39.4,30.16,ENE,67,0.0,1.0,81,0.00,CLR,,0.00,WeatherDisplay:10.37,2013-02-23 16:15:00,
2013-02-23 08:30:00,45.1,39.3,30.17,East,92,0.0,1.0,80,0.00,CLR,,0.00,WeatherDisplay:10.37,2013-02-23 16:30:00,
2013-02-23 08:45:00,45.4,39.6,30.17,East,92,0.0,2.0,80,0.00,CLR,,0.00,WeatherDisplay:10.37,2013-02-23 16:45:00,
2013-02-23 09:00:00,45.7,39.9,30.18,East,89,0.0,1.0,80,0.00,CLR,,0.00,WeatherDisplay:10.37,2013-02-23 17:00:00,
2013-02-23 09:15:00,46.2,39.4,30.18,East,88,0.0,2.0,77,0.00,CLR,,0.00,WeatherDisplay:10.37,2013-02-23 17:15:00,
2013-02-23 09:30:00,46.7,39.9,30.18,ESE,116,0.0,2.0,77,0.00,CLR,,0.00,WeatherDisplay:10.37,2013-02-23 17:30:00,
2013-02-23 09:45:00,47.0,39.8,30.17,ESE,118,0.0,1.0,76,0.00,CLR,,0.00,WeatherDisplay:10.37,2013-02-23 17:45:00,
2013-02-23 10:00:00,47.6,40.1,30.17,ESE,118,0.0,2.0,75,0.00,CLR,,0.00,WeatherDisplay:10.37,2013-02-23 18:00:00,
2013-02-23 10:15:00,47.9,38.6,30.17,ESE,118,0.0,1.0,70,0.00,CLR,,0.00,WeatherDisplay:10.37,2013-02-23 18:15:00,
2013-02-23 10:30:00,48.0,37.9,30.16,ESE,118,0.0,1.0,68,0.00,CLR,,0.00,WeatherDisplay:10.37,2013-02-23 18:30:00,
2013-02-23 10:45:00,48.6,37.7,30.16,ESE,118,0.0,1.0,66,0.00,CLR,,0.00,WeatherDisplay:10.37,2013-02-23 18:45:00,
2013-02-23 11:00:00,49.2,37.5,30.16,ESE,118,0.0,1.0,64,0.00,CLR,,0.00,WeatherDisplay:10.37,2013-02-23 19:00:00,
2013-02-23 11:15:00,49.9,36.5,30.16,ESE,122,0.0,2.0,60,0.00,CLR,,0.00,WeatherDisplay:10.37,2013-02-23 19:15:00,
2013-02-23 11:30:00,50.7,36.5,30.16,ESE,109,0.0,2.0,58,0.00,CLR,,0.00,WeatherDisplay:10.37,2013-02-23 19:30:00,
2013-02-23 11:45:00,51.4,36.7,30.14,SSW,200,0.0,4.0,57,0.00,CLR,,0.00,WeatherDisplay:10.37,2013-02-23 19:45:00,
2013-02-23 12:00:00,51.8,35.7,30.14,WSW,241,0.0,1.0,54,0.00,CLR,,0.00,WeatherDisplay:10.37,2013-02-23 20:00:00,
2013-02-23 12:15:00,52.3,35.2,30.12,South,179,0.0,3.0,52,0.00,CLR,,0.00,WeatherDisplay:10.37,2013-02-23 20:15:00,
2013-02-23 12:30:00,52.9,34.2,30.12,East,101,0.0,2.0,49,0.00,CLR,,0.00,WeatherDisplay:10.37,2013-02-23 20:30:00,
2013-02-23 12:45:00,53.8,34.0,30.11,SE,146,1.0,4.0,47,0.00,CLR,,0.00,WeatherDisplay:10.37,2013-02-23 20:45:00,
2013-02-23 13:00:00,56.1,34.5,30.11,SSE,165,0.0,7.0,44,0.00,CLR,,0.00,WeatherDisplay:10.37,2013-02-23 21:00:00,
2013-02-23 13:15:00,56.3,33.5,30.10,ESE,118,0.0,4.0,42,0.00,CLR,,0.00,WeatherDisplay:10.37,2013-02-23 21:15:00,
2013-02-23 13:30:00,56.6,33.2,30.09,SE,127,0.0,3.0,41,0.00,CLR,,0.00,WeatherDisplay:10.37,2013-02-23 21:30:00,
2013-02-23 13:45:00,57.0,32.9,30.08,ENE,74,0.0,3.0,40,0.00,CLR,,0.00,WeatherDisplay:10.37,2013-02-23 21:45:00,
2013-02-23 14:00:00,57.0,36.4,30.08,ENE,70,0.0,6.0,46,0.00,CLR,,0.00,WeatherDisplay:10.37,2013-02-23 22:00:00,
2013-02-23 14:15:00,57.6,36.4,30.08,SSE,165,0.0,5.0,45,0.00,CLR,,0.00,WeatherDisplay:10.37,2013-02-23 22:15:00,
2013-02-23 14:30:00,58.2,37.0,30.08,SW,219,0.0,4.0,45,0.00,CLR,,0.00,WeatherDisplay:10.37,2013-02-23 22:30:00,
2013-02-23 14:45:00,57.3,38.3,30.09,East,83,1.0,5.0,49,0.00,CLR,,0.00,WeatherDisplay:10.37,2013-02-23 22:45:00,
2013-02-23 15:00:00,58.0,37.3,30.09,SE,138,0.0,3.0,46,0.00,CLR,,0.00,WeatherDisplay:10.37,2013-02-23 23:00:00,
2013-02-23 15:15:00,56.0,34.9,30.09,ENE,61,0.0,3.0,45,0.00,CLR,,0.00,WeatherDisplay:10.37,2013-02-23 23:15:00,
2013-02-23 15:30:00,55.3,36.0,30.09,ESE,117,0.0,2.0,48,0.00,CLR,,0.00,WeatherDisplay:10.37,2013-02-23 23:30:00,
2013-02-23 15:45:00,54.2,36.5,30.09,East,86,0.0,2.0,51,0.00,CLR,,0.00,WeatherDisplay:10.37,2013-02-23 23:45:00,
2013-02-23 16:00:00,53.6,35.9,30.09,East,81,0.0,4.0,51,0.00,CLR,,0.00,WeatherDisplay:10.37,2013-02-24 00:00:00,
2013-02-23 16:15:00,53.2,36.0,30.09,NE,45,0.0,3.0,52,0.00,CLR,,0.00,WeatherDisplay:10.37,2013-02-24 00:15:00,
2013-02-23 16:30:00,52.8,36.6,30.08,ESE,121,0.0,1.0,54,0.00,CLR,,0.00,WeatherDisplay:10.37,2013-02-24 00:30:00,
2013-02-23 16:45:00,52.2,37.0,30.08,NE,53,0.0,2.0,56,0.00,CLR,,0.00,WeatherDisplay:10.37,2013-02-24 00:45:00,
2013-02-23 17:00:00,51.7,37.4,30.09,ENE,58,0.0,1.0,58,0.00,CLR,,0.00,WeatherDisplay:10.37,2013-02-24 01:00:00,
2013-02-23 17:15:00,51.0,37.6,30.09,ENE,59,0.0,1.0,60,0.00,CLR,,0.00,WeatherDisplay:10.37,2013-02-24 01:15:00,
2013-02-23 17:30:00,50.2,37.3,30.09,ENE,58,0.0,1.0,61,0.00,CLR,,0.00,WeatherDisplay:10.37,2013-02-24 01:30:00,
2013-02-23 17:45:00,49.4,37.3,30.10,ENE,58,0.0,2.0,63,0.00,CLR,,0.00,WeatherDisplay:10.37,2013-02-24 01:45:00,
2013-02-23 18:00:00,48.6,37.3,30.10,ENE,60,0.0,2.0,65,0.00,CLR,,0.00,WeatherDisplay:10.37,2013-02-24 02:00:00,
2013-02-23 18:15:00,47.9,37.5,30.11,ENE,60,0.0,0.0,67,0.00,CLR,,0.00,WeatherDisplay:10.37,2013-02-24 02:15:00,
2013-02-23 18:30:00,47.4,37.4,30.11,ENE,60,0.0,1.0,68,0.00,CLR,,0.00,WeatherDisplay:10.37,2013-02-24 02:30:00,
2013-02-23 18:45:00,46.8,37.2,30.11,ENE,60,0.0,1.0,69,0.00,CLR,,0.00,WeatherDisplay:10.37,2013-02-24 02:45:00,
2013-02-23 19:00:00,46.4,37.1,30.12,ENE,60,0.0,1.0,70,0.00,CLR,,0.00,WeatherDisplay:10.37,2013-02-24 03:00:00,
2013-02-23 19:15:00,46.1,36.9,30.12,ENE,60,0.0,1.0,70,0.00,CLR,,0.00,WeatherDisplay:10.37,2013-02-24 03:15:00,
2013-02-23 19:30:00,45.7,36.5,30.13,ENE,60,0.0,1.0,70,0.00,CLR,,0.00,WeatherDisplay:10.37,2013-02-24 03:30:00,
2013-02-23 19:45:00,45.4,36.2,30.13,ENE,60,0.0,0.0,70,0.00,CLR,,0.00,WeatherDisplay:10.37,2013-02-24 03:45:00,
2013-02-23 20:00:00,45.0,36.8,30.13,ENE,60,0.0,0.0,73,0.00,CLR,,0.00,WeatherDisplay:10.37,2013-02-24 04:00:00,
2013-02-23 20:15:00,44.1,36.3,30.13,ENE,60,0.0,1.0,74,0.00,CLR,,0.00,WeatherDisplay:10.37,2013-02-24 04:15:00,
2013-02-23 20:30:00,42.9,35.9,30.13,ENE,60,0.0,1.0,76,0.00,CLR,,0.00,WeatherDisplay:10.37,2013-02-24 04:30:00,
2013-02-23 20:45:00,41.9,35.5,30.14,ENE,60,0.0,0.0,78,0.00,CLR,,0.00,WeatherDisplay:10.37,2013-02-24 04:45:00,
2013-02-23 21:00:00,41.2,35.5,30.15,NE,53,0.0,2.0,80,0.00,CLR,,0.00,WeatherDisplay:10.37,2013-02-24 05:00:00,
2013-02-23 21:15:00,40.6,35.2,30.15,NE,53,0.0,1.0,81,0.00,CLR,,0.00,WeatherDisplay:10.37,2013-02-24 05:15:00,
2013-02-23 21:30:00,40.2,35.1,30.15,NE,53,0.0,0.0,82,0.00,CLR,,0.00,WeatherDisplay:10.37,2013-02-24 05:30:00,
2013-02-23 21:45:00,39.8,34.8,30.15,NE,53,0.0,0.0,82,0.00,CLR,,0.00,WeatherDisplay:10.37,2013-02-24 05:45:00,
2013-02-23 22:00:00,39.5,34.8,30.15,NE,53,0.0,0.0,83,0.00,CLR,,0.00,WeatherDisplay:10.37,2013-02-24 06:00:00,
2013-02-23 22:15:00,38.9,34.2,30.15,NE,53,0.0,1.0,83,0.00,CLR,,0.00,WeatherDisplay:10.37,2013-02-24 06:15:00,
2013-02-23 22:30:00,38.5,34.1,30.14,NE,53,0.0,1.0,84,0.00,CLR,,0.00,WeatherDisplay:10.37,2013-02-24 06:30:00,
2013-02-23 22:45:00,38.2,34.1,30.14,NE,53,0.0,0.0,85,0.00,CLR,,0.00,WeatherDisplay:10.37,2013-02-24 06:45:00,
2013-02-23 23:00:00,37.9,33.8,30.14,NE,53,0.0,0.0,85,0.00,CLR,,0.00,WeatherDisplay:10.37,2013-02-24 07:00:00,
2013-02-23 23:15:00,37.5,33.7,30.13,NE,53,0.0,0.0,86,0.00,CLR,,0.00,WeatherDisplay:10.37,2013-02-24 07:15:00,
2013-02-23 23:30:00,37.3,33.5,30.13,NE,53,0.0,0.0,86,0.00,CLR,,0.00,WeatherDisplay:10.37,2013-02-24 07:30:00,
2013-02-23 23:45:00,37.0,33.5,30.13,NE,53,0.0,2.0,87,0.00,CLR,,0.00,WeatherDisplay:10.37,2013-02-24 07:45:00,